RYR4SV GCFV-LEMD

Flight info

Callsign RYR4SV
Flight time 2h 6m
Altitude 36000
Route VASTO UN858 AKUDA DCT PESAS N858 PARKA Z165 SOTUK
Aircraft B738/M-SDE3FGILRWY/SB1

Departure

Time 2026-05-06 16:57
Airport Fuerteventura Airport (GCFV)

Arrival

Time 2026-05-06 19:03
Airport Adolfo Suárez Madrid–Barajas Airport (LEMD)
Time Latitude Longitude Altitude Speed Heading
2026-05-06 16:33 28.45125 -13.86842 34 ft 0 kts 267°
2026-05-06 16:47 28.45125 -13.86837 34 ft 2 kts 267°
2026-05-06 16:47 28.45126 -13.86820 35 ft 2 kts 267°
2026-05-06 16:47 28.45126 -13.86803 35 ft 2 kts 267°
2026-05-06 16:48 28.45127 -13.86786 36 ft 2 kts 267°
2026-05-06 16:48 28.45128 -13.86768 35 ft 2 kts 267°
2026-05-06 16:48 28.45128 -13.86758 35 ft 1 kts 268°
2026-05-06 16:48 28.45134 -13.86744 34 ft 2 kts 212°
2026-05-06 16:49 28.45142 -13.86740 34 ft 1 kts 182°
2026-05-06 16:49 28.45149 -13.86740 33 ft 0 kts 181°
2026-05-06 16:51 28.45117 -13.86729 33 ft 9 kts 140°
2026-05-06 16:51 28.45097 -13.86659 33 ft 10 kts 92°
2026-05-06 16:51 28.45075 -13.86589 33 ft 9 kts 151°
2026-05-06 16:52 28.45014 -13.86577 33 ft 9 kts 179°
2026-05-06 16:52 28.44899 -13.86580 33 ft 19 kts 182°
2026-05-06 16:52 28.44761 -13.86585 33 ft 21 kts 183°
2026-05-06 16:52 28.44609 -13.86591 33 ft 21 kts 181°
2026-05-06 16:53 28.44461 -13.86595 33 ft 20 kts 181°
2026-05-06 16:53 28.44317 -13.86598 33 ft 20 kts 181°
2026-05-06 16:53 28.44173 -13.86604 33 ft 22 kts 181°
2026-05-06 16:53 28.44018 -13.86608 33 ft 22 kts 182°
2026-05-06 16:54 28.43865 -13.86613 33 ft 21 kts 181°
2026-05-06 16:54 28.43719 -13.86618 33 ft 20 kts 181°
2026-05-06 16:54 28.43577 -13.86622 33 ft 20 kts 181°
2026-05-06 16:54 28.43442 -13.86627 33 ft 19 kts 182°
2026-05-06 16:55 28.43316 -13.86612 33 ft 16 kts 130°
2026-05-06 16:55 28.43302 -13.86514 33 ft 13 kts 91°
2026-05-06 16:55 28.43370 -13.86441 33 ft 15 kts
2026-05-06 16:55 28.43481 -13.86438 33 ft 19 kts
2026-05-06 16:56 28.43722 -13.86423 33 ft 61 kts
2026-05-06 16:56 28.44374 -13.86404 33 ft 122 kts
2026-05-06 16:56 28.45400 -13.86379 60 ft 167 kts
2026-05-06 16:56 28.46557 -13.86367 656 ft 168 kts
2026-05-06 16:57 28.47652 -13.86082 1315 ft 167 kts 34°
2026-05-06 16:57 28.48326 -13.84965 1784 ft 181 kts 70°
2026-05-06 16:57 28.48800 -13.83614 2141 ft 193 kts 50°
2026-05-06 16:57 28.49955 -13.82776 2442 ft 209 kts 12°
2026-05-06 16:58 28.51440 -13.82546 2896 ft 221 kts
2026-05-06 16:58 28.53006 -13.82315 3313 ft 235 kts
2026-05-06 16:58 28.54679 -13.82124 3750 ft 248 kts
2026-05-06 16:58 28.56437 -13.81930 4361 ft 254 kts
2026-05-06 16:59 28.58196 -13.81723 4961 ft 259 kts
2026-05-06 16:59 28.59996 -13.81501 5588 ft 262 kts
2026-05-06 16:59 28.61828 -13.81274 6195 ft 268 kts
2026-05-06 16:59 28.63688 -13.81045 6807 ft 272 kts
2026-05-06 17:00 28.65578 -13.80807 7518 ft 274 kts
2026-05-06 17:00 28.67490 -13.80565 8174 ft 278 kts
2026-05-06 17:00 28.69406 -13.80326 8838 ft 281 kts
2026-05-06 17:00 28.71358 -13.80084 9510 ft 285 kts
2026-05-06 17:01 28.73337 -13.79839 10253 ft 287 kts
2026-05-06 17:01 28.75369 -13.79588 10690 ft 301 kts
2026-05-06 17:01 28.77507 -13.79324 11087 ft 316 kts
2026-05-06 17:01 28.79745 -13.79047 11467 ft 330 kts
2026-05-06 17:02 28.82062 -13.78759 12047 ft 338 kts
2026-05-06 17:02 28.84422 -13.78465 12645 ft 343 kts
2026-05-06 17:02 28.86799 -13.78166 13406 ft 346 kts
2026-05-06 17:02 28.89232 -13.77859 14055 ft 352 kts
2026-05-06 17:03 28.91666 -13.77552 14791 ft 356 kts
2026-05-06 17:03 28.94137 -13.77241 15477 ft 360 kts
2026-05-06 17:03 28.96641 -13.76925 16124 ft 366 kts
2026-05-06 17:03 28.99189 -13.76603 16794 ft 370 kts
2026-05-06 17:04 29.01794 -13.76274 17485 ft 374 kts
2026-05-06 17:04 29.04386 -13.75947 18123 ft 378 kts
2026-05-06 17:04 29.07004 -13.75618 18765 ft 381 kts
2026-05-06 17:04 29.09661 -13.75283 19416 ft 384 kts
2026-05-06 17:05 29.12317 -13.74949 20045 ft 387 kts
2026-05-06 17:05 29.15027 -13.74609 20646 ft 390 kts
2026-05-06 17:05 29.17742 -13.74269 21211 ft 394 kts
2026-05-06 17:05 29.20453 -13.73930 21794 ft 397 kts
2026-05-06 17:06 29.23218 -13.73582 22342 ft 400 kts
2026-05-06 17:06 29.26020 -13.73227 22874 ft 403 kts
2026-05-06 17:06 29.28814 -13.72872 23434 ft 406 kts
2026-05-06 17:06 29.31606 -13.72517 23940 ft 409 kts
2026-05-06 17:07 29.34433 -13.72159 24497 ft 411 kts
2026-05-06 17:07 29.37291 -13.71797 25000 ft 414 kts
2026-05-06 17:07 29.40179 -13.71433 25534 ft 416 kts
2026-05-06 17:07 29.43059 -13.71068 26054 ft 417 kts
2026-05-06 17:08 29.45996 -13.70698 26471 ft 421 kts
2026-05-06 17:08 29.48918 -13.70328 26959 ft 423 kts
2026-05-06 17:08 29.51853 -13.69957 27395 ft 426 kts
2026-05-06 17:08 29.54816 -13.69582 27844 ft 429 kts
2026-05-06 17:09 29.57784 -13.69205 28275 ft 431 kts
2026-05-06 17:09 29.60760 -13.68828 28758 ft 432 kts
2026-05-06 17:09 29.63762 -13.68446 29169 ft 435 kts
2026-05-06 17:09 29.66765 -13.68065 29596 ft 437 kts
2026-05-06 17:10 29.69784 -13.67682 30003 ft 439 kts
2026-05-06 17:10 29.72821 -13.67297 30474 ft 438 kts
2026-05-06 17:10 29.75825 -13.66912 31064 ft 434 kts
2026-05-06 17:10 29.78822 -13.66528 31646 ft 430 kts
2026-05-06 17:11 29.81780 -13.66150 32088 ft 430 kts
2026-05-06 17:11 29.84767 -13.65768 32449 ft 430 kts
2026-05-06 17:11 29.87771 -13.65385 32849 ft 430 kts
2026-05-06 17:11 29.90713 -13.65010 33216 ft 430 kts
2026-05-06 17:12 29.93719 -13.64627 33619 ft 429 kts
2026-05-06 17:12 29.96663 -13.64251 34052 ft 427 kts
2026-05-06 17:12 29.99611 -13.63875 34407 ft 427 kts
2026-05-06 17:12 30.02588 -13.63382 34724 ft 429 kts
2026-05-06 17:13 30.05511 -13.62523 35139 ft 430 kts 13°
2026-05-06 17:13 30.08305 -13.61305 35468 ft 433 kts 20°
2026-05-06 17:13 30.10974 -13.59736 35767 ft 435 kts 25°
2026-05-06 17:13 30.13575 -13.57910 35990 ft 438 kts 28°
2026-05-06 17:14 30.16158 -13.56015 35993 ft 443 kts 28°
2026-05-06 17:14 30.21482 -13.52191 35996 ft 454 kts 26°
2026-05-06 17:15 30.26999 -13.48475 35994 ft 463 kts 25°
2026-05-06 17:15 30.32679 -13.44810 35994 ft 470 kts 24°
2026-05-06 17:16 30.38421 -13.41173 35741 ft 470 kts 24°
2026-05-06 17:16 30.41284 -13.39372 35977 ft 469 kts 24°
2026-05-06 17:16 30.44139 -13.37579 35990 ft 473 kts 24°
2026-05-06 17:17 30.49923 -13.33952 36169 ft 474 kts 25°
2026-05-06 17:17 30.52837 -13.32122 35851 ft 467 kts 25°
2026-05-06 17:17 30.55660 -13.30346 35993 ft 468 kts 25°
2026-05-06 17:18 30.61459 -13.26706 35993 ft 474 kts 25°
2026-05-06 17:18 30.67211 -13.23088 35993 ft 472 kts 24°
2026-05-06 17:19 30.72969 -13.19458 35996 ft 471 kts 24°
2026-05-06 17:19 30.78767 -13.15799 35994 ft 471 kts 25°
2026-05-06 17:20 30.84536 -13.12153 36000 ft 472 kts 25°
2026-05-06 17:20 30.90292 -13.08508 36003 ft 471 kts 25°
2026-05-06 17:21 30.96007 -13.04886 36003 ft 471 kts 25°
2026-05-06 17:21 31.01766 -13.01233 36008 ft 468 kts 25°
2026-05-06 17:22 31.07492 -12.97595 36007 ft 470 kts 25°
2026-05-06 17:22 31.13245 -12.93934 36006 ft 471 kts 25°
2026-05-06 17:23 31.18977 -12.90282 36006 ft 471 kts 25°
2026-05-06 17:23 31.24712 -12.86621 36007 ft 472 kts 25°
2026-05-06 17:24 31.30502 -12.82921 36005 ft 474 kts 25°
2026-05-06 17:24 31.36256 -12.79238 35998 ft 473 kts 25°
2026-05-06 17:25 31.41923 -12.75205 35997 ft 475 kts 29°
2026-05-06 17:25 31.47446 -12.70846 36003 ft 476 kts 30°
2026-05-06 17:26 31.52949 -12.66427 36001 ft 477 kts 30°
2026-05-06 17:26 31.58440 -12.62041 36002 ft 477 kts 30°
2026-05-06 17:27 31.63956 -12.57663 35997 ft 479 kts 30°
2026-05-06 17:27 31.69446 -12.53319 35998 ft 479 kts 30°
2026-05-06 17:28 31.74970 -12.48951 36001 ft 478 kts 30°
2026-05-06 17:28 31.80516 -12.44563 35997 ft 479 kts 30°
2026-05-06 17:29 31.86059 -12.40174 35996 ft 480 kts 30°
2026-05-06 17:29 31.91557 -12.35813 35997 ft 480 kts 30°
2026-05-06 17:30 31.97138 -12.31380 35994 ft 481 kts 30°
2026-05-06 17:30 32.02652 -12.26992 35997 ft 480 kts 30°
2026-05-06 17:31 32.08182 -12.22584 35995 ft 480 kts 30°
2026-05-06 17:31 32.13725 -12.18159 35998 ft 480 kts 30°
2026-05-06 17:32 32.19227 -12.13762 35983 ft 480 kts 30°
2026-05-06 17:32 32.24771 -12.09323 36004 ft 480 kts 30°
2026-05-06 17:33 32.30275 -12.04913 35988 ft 480 kts 30°
2026-05-06 17:33 32.35821 -12.00461 35991 ft 480 kts 31°
2026-05-06 17:34 32.41314 -11.96045 35991 ft 482 kts 31°
2026-05-06 17:34 32.46867 -11.91575 35990 ft 480 kts 30°
2026-05-06 17:35 32.52364 -11.87140 35987 ft 480 kts 30°
2026-05-06 17:35 32.57909 -11.82660 35985 ft 481 kts 30°
2026-05-06 17:36 32.66166 -11.75979 35984 ft 481 kts 30°
2026-05-06 17:36 32.71730 -11.71470 35987 ft 483 kts 30°
2026-05-06 17:37 32.77286 -11.66958 35984 ft 484 kts 31°
2026-05-06 17:37 32.82820 -11.62457 35982 ft 482 kts 30°
2026-05-06 17:38 32.88364 -11.57941 35981 ft 484 kts 30°
2026-05-06 17:38 32.93952 -11.53384 35979 ft 484 kts 30°
2026-05-06 17:39 32.99487 -11.48860 35980 ft 482 kts 30°
2026-05-06 17:39 33.05066 -11.44296 35977 ft 485 kts 30°
2026-05-06 17:40 33.10604 -11.39760 35977 ft 486 kts 31°
2026-05-06 17:40 33.16168 -11.35192 35978 ft 485 kts 31°
2026-05-06 17:41 33.21738 -11.30612 35979 ft 486 kts 31°
2026-05-06 17:41 33.27324 -11.26013 35977 ft 487 kts 31°
2026-05-06 17:42 33.32921 -11.21398 35977 ft 487 kts 31°
2026-05-06 17:42 33.38459 -11.16823 35978 ft 487 kts 31°
2026-05-06 17:43 33.44051 -11.12197 35981 ft 487 kts 31°
2026-05-06 17:43 33.49632 -11.07575 35979 ft 490 kts 31°
2026-05-06 17:44 33.55193 -11.02957 35978 ft 488 kts 31°
2026-05-06 17:44 33.60811 -10.98287 35970 ft 491 kts 32°
2026-05-06 17:45 33.66407 -10.93628 35968 ft 489 kts 32°
2026-05-06 17:45 33.71979 -10.88981 35967 ft 491 kts 32°
2026-05-06 17:46 33.77613 -10.84275 35966 ft 491 kts 31°
2026-05-06 17:46 33.83233 -10.79572 35965 ft 490 kts 31°
2026-05-06 17:47 33.88810 -10.74900 35963 ft 491 kts 31°
2026-05-06 17:47 33.94423 -10.70190 35959 ft 491 kts 31°
2026-05-06 17:48 34.00014 -10.65490 35963 ft 491 kts 31°
2026-05-06 17:48 34.05616 -10.60772 35960 ft 491 kts 31°
2026-05-06 17:49 34.11215 -10.56051 35961 ft 494 kts 32°
2026-05-06 17:49 34.16830 -10.51307 35961 ft 493 kts 32°
2026-05-06 17:50 34.22449 -10.46550 35963 ft 493 kts 31°
2026-05-06 17:50 34.28052 -10.41800 35960 ft 493 kts 32°
2026-05-06 17:51 34.33667 -10.37033 35959 ft 493 kts 32°
2026-05-06 17:51 34.39265 -10.32273 35959 ft 494 kts 32°
2026-05-06 17:52 34.44902 -10.27469 35959 ft 495 kts 32°
2026-05-06 17:52 34.50548 -10.22649 35960 ft 494 kts 32°
2026-05-06 17:53 34.56152 -10.17856 35958 ft 495 kts 32°
2026-05-06 17:53 34.61788 -10.13029 35961 ft 495 kts 32°
2026-05-06 17:54 34.67399 -10.08216 35961 ft 496 kts 32°
2026-05-06 17:54 34.73038 -10.03373 35961 ft 496 kts 32°
2026-05-06 17:55 34.78659 -9.98535 35957 ft 496 kts 32°
2026-05-06 17:55 34.84272 -9.93696 35955 ft 496 kts 32°
2026-05-06 17:56 34.89887 -9.88846 35949 ft 497 kts 32°
2026-05-06 17:56 34.95505 -9.83989 35942 ft 495 kts 33°
2026-05-06 17:57 35.01107 -9.79136 35944 ft 496 kts 32°
2026-05-06 17:57 35.06710 -9.74274 35946 ft 495 kts 33°
2026-05-06 17:58 35.12320 -9.69395 35941 ft 495 kts 32°
2026-05-06 17:58 35.17920 -9.64516 35937 ft 495 kts 33°
2026-05-06 17:59 35.23529 -9.59619 35939 ft 496 kts 32°
2026-05-06 17:59 35.29109 -9.54742 35937 ft 496 kts 33°
2026-05-06 18:00 35.34726 -9.49827 35936 ft 496 kts 33°
2026-05-06 18:00 35.40310 -9.44933 35933 ft 496 kts 33°
2026-05-06 18:01 35.45929 -9.39996 35938 ft 495 kts 33°
2026-05-06 18:01 35.51505 -9.35088 35933 ft 495 kts 33°
2026-05-06 18:02 35.57092 -9.30163 35935 ft 496 kts 33°
2026-05-06 18:02 35.62714 -9.25198 35941 ft 498 kts 33°
2026-05-06 18:03 35.68310 -9.20249 35950 ft 498 kts 33°
2026-05-06 18:03 35.73948 -9.15253 35948 ft 497 kts 33°
2026-05-06 18:04 35.79552 -9.10278 35949 ft 498 kts 33°
2026-05-06 18:04 35.85147 -9.05302 35947 ft 497 kts 33°
2026-05-06 18:05 35.90732 -9.00328 35947 ft 498 kts 33°
2026-05-06 18:05 35.96223 -8.95072 35947 ft 500 kts 39°
2026-05-06 18:06 36.01125 -8.89009 35944 ft 502 kts 46°
2026-05-06 18:06 36.05676 -8.82521 35941 ft 502 kts 48°
2026-05-06 18:07 36.10159 -8.75918 35936 ft 502 kts 49°
2026-05-06 18:07 36.14651 -8.69318 35924 ft 501 kts 48°
2026-05-06 18:08 36.19128 -8.62786 35906 ft 499 kts 48°
2026-05-06 18:08 36.23637 -8.56241 35908 ft 499 kts 48°
2026-05-06 18:09 36.28128 -8.49731 35908 ft 499 kts 47°
2026-05-06 18:09 36.32632 -8.43197 35905 ft 499 kts 48°
2026-05-06 18:10 36.37122 -8.36673 35898 ft 499 kts 48°
2026-05-06 18:10 36.41612 -8.30130 35892 ft 498 kts 48°
2026-05-06 18:11 36.46091 -8.23591 35887 ft 498 kts 48°
2026-05-06 18:11 36.50553 -8.17066 35896 ft 498 kts 48°
2026-05-06 18:12 36.55024 -8.10512 35872 ft 498 kts 48°
2026-05-06 18:12 36.59499 -8.03940 35874 ft 498 kts 48°
2026-05-06 18:13 36.63957 -7.97383 35862 ft 497 kts 48°
2026-05-06 18:13 36.68430 -7.90789 35860 ft 497 kts 48°
2026-05-06 18:14 36.72914 -7.84290 35862 ft 496 kts 45°
2026-05-06 18:14 36.77888 -7.78368 35861 ft 494 kts 39°
2026-05-06 18:15 36.83088 -7.72732 35871 ft 493 kts 38°
2026-05-06 18:15 36.88220 -7.67138 35871 ft 492 kts 39°
2026-05-06 18:16 36.93310 -7.61450 35871 ft 492 kts 40°
2026-05-06 18:16 36.98387 -7.55676 35871 ft 493 kts 40°
2026-05-06 18:17 37.03418 -7.49905 35874 ft 493 kts 40°
2026-05-06 18:17 37.08447 -7.44114 35870 ft 492 kts 40°
2026-05-06 18:18 37.13498 -7.38284 35875 ft 492 kts 40°
2026-05-06 18:18 37.18515 -7.32484 35875 ft 491 kts 40°
2026-05-06 18:19 37.23566 -7.26637 35872 ft 491 kts 41°
2026-05-06 18:19 37.28576 -7.20826 35875 ft 491 kts 40°
2026-05-06 18:20 37.33579 -7.15012 35870 ft 491 kts 41°
2026-05-06 18:20 37.38596 -7.09171 35859 ft 490 kts 40°
2026-05-06 18:21 37.43586 -7.03351 35852 ft 491 kts 40°
2026-05-06 18:21 37.48570 -6.97526 35852 ft 490 kts 40°
2026-05-06 18:22 37.53549 -6.91697 35854 ft 491 kts 41°
2026-05-06 18:22 37.58553 -6.85827 35849 ft 491 kts 40°
2026-05-06 18:23 37.63529 -6.79979 35850 ft 491 kts 40°
2026-05-06 18:23 37.68535 -6.74085 35854 ft 491 kts 40°
2026-05-06 18:24 37.73490 -6.68237 35856 ft 491 kts 40°
2026-05-06 18:24 37.78479 -6.62339 35862 ft 490 kts 41°
2026-05-06 18:25 37.83465 -6.56434 35871 ft 491 kts 40°
2026-05-06 18:25 37.88436 -6.50535 35873 ft 491 kts 40°
2026-05-06 18:26 37.93414 -6.44616 35878 ft 491 kts 40°
2026-05-06 18:26 37.98362 -6.38722 35878 ft 490 kts 41°
2026-05-06 18:27 38.03311 -6.32817 35874 ft 491 kts 41°
2026-05-06 18:27 38.08260 -6.26897 35878 ft 482 kts 41°
2026-05-06 18:28 38.13075 -6.21122 35886 ft 478 kts 41°
2026-05-06 18:28 38.17913 -6.15316 35880 ft 479 kts 41°
2026-05-06 18:29 38.22754 -6.09494 35886 ft 480 kts 41°
2026-05-06 18:29 38.27587 -6.03669 35888 ft 480 kts 41°
2026-05-06 18:30 38.32420 -5.97834 35885 ft 480 kts 41°
2026-05-06 18:30 38.37252 -5.91989 35884 ft 481 kts 41°
2026-05-06 18:31 38.42107 -5.86106 35885 ft 481 kts 41°
2026-05-06 18:31 38.46920 -5.80260 35883 ft 480 kts 41°
2026-05-06 18:32 38.51762 -5.74368 35888 ft 481 kts 41°
2026-05-06 18:32 38.56594 -5.68478 35881 ft 482 kts 41°
2026-05-06 18:33 38.61434 -5.62566 35882 ft 482 kts 41°
2026-05-06 18:33 38.66254 -5.56665 35881 ft 482 kts 41°
2026-05-06 18:34 38.71104 -5.50717 35878 ft 483 kts 41°
2026-05-06 18:34 38.75954 -5.44757 35877 ft 483 kts 41°
2026-05-06 18:35 38.80766 -5.38832 35876 ft 482 kts 41°
2026-05-06 18:35 38.85577 -5.32893 35871 ft 472 kts 42°
2026-05-06 18:36 38.87908 -5.30009 35716 ft 462 kts 42°
2026-05-06 18:36 38.90222 -5.27142 35377 ft 457 kts 42°
2026-05-06 18:36 38.92488 -5.24337 34903 ft 456 kts 41°
2026-05-06 18:36 38.94738 -5.21549 34475 ft 454 kts 41°
2026-05-06 18:37 38.97007 -5.18726 33946 ft 452 kts 43°
2026-05-06 18:37 38.99165 -5.15793 33405 ft 451 kts 47°
2026-05-06 18:37 39.01124 -5.12645 32904 ft 449 kts 53°
2026-05-06 18:37 39.02890 -5.09370 32410 ft 447 kts 56°
2026-05-06 18:38 39.04557 -5.06015 31917 ft 444 kts 57°
2026-05-06 18:38 39.06146 -5.02686 31425 ft 442 kts 58°
2026-05-06 18:38 39.07733 -4.99313 30930 ft 439 kts 58°
2026-05-06 18:38 39.09305 -4.95963 30441 ft 437 kts 58°
2026-05-06 18:39 39.10870 -4.92630 29945 ft 434 kts 58°
2026-05-06 18:39 39.12416 -4.89349 29452 ft 431 kts 58°
2026-05-06 18:39 39.13985 -4.86031 28955 ft 427 kts 58°
2026-05-06 18:40 39.17077 -4.79517 27801 ft 425 kts 58°
2026-05-06 18:40 39.18650 -4.76326 27301 ft 422 kts 56°
2026-05-06 18:40 39.20359 -4.73344 26830 ft 418 kts 49°
2026-05-06 18:40 39.22295 -4.70540 26428 ft 411 kts 45°
2026-05-06 18:41 39.24247 -4.67978 26181 ft 401 kts 43°
2026-05-06 18:41 39.26220 -4.65491 25991 ft 392 kts 43°
2026-05-06 18:41 39.28175 -4.63053 25552 ft 390 kts 43°
2026-05-06 18:41 39.30093 -4.60650 25115 ft 387 kts 43°
2026-05-06 18:42 39.32005 -4.58233 24657 ft 383 kts 43°
2026-05-06 18:42 39.33890 -4.55827 24203 ft 380 kts 43°
2026-05-06 18:42 39.35762 -4.53420 23751 ft 377 kts 44°
2026-05-06 18:42 39.37607 -4.51037 23297 ft 374 kts 44°
2026-05-06 18:43 39.39422 -4.48684 22849 ft 371 kts 44°
2026-05-06 18:43 39.41236 -4.46324 22397 ft 368 kts 44°
2026-05-06 18:43 39.43035 -4.43982 21948 ft 366 kts 44°
2026-05-06 18:43 39.44800 -4.41681 21509 ft 363 kts 44°
2026-05-06 18:44 39.46574 -4.39367 21060 ft 360 kts 44°
2026-05-06 18:44 39.48325 -4.37081 20620 ft 358 kts 44°
2026-05-06 18:44 39.50063 -4.34810 20180 ft 355 kts 44°
2026-05-06 18:44 39.51797 -4.32546 19736 ft 352 kts 44°
2026-05-06 18:45 39.53501 -4.30322 19423 ft 346 kts 44°
2026-05-06 18:45 39.55199 -4.28103 19095 ft 343 kts 44°
2026-05-06 18:45 39.56853 -4.25939 18741 ft 341 kts 44°
2026-05-06 18:45 39.58531 -4.23739 18380 ft 338 kts 45°
2026-05-06 18:46 39.60156 -4.21606 18026 ft 336 kts 45°
2026-05-06 18:46 39.61795 -4.19452 17671 ft 334 kts 45°
2026-05-06 18:46 39.63428 -4.17303 17311 ft 331 kts 45°
2026-05-06 18:46 39.65022 -4.15206 16968 ft 329 kts 45°
2026-05-06 18:47 39.66624 -4.13100 16611 ft 326 kts 45°
2026-05-06 18:47 39.68201 -4.11025 16261 ft 325 kts 45°
2026-05-06 18:47 39.69800 -4.08918 15906 ft 323 kts 45°
2026-05-06 18:47 39.71347 -4.06876 15576 ft 320 kts 45°
2026-05-06 18:48 39.72911 -4.04809 15320 ft 317 kts 45°
2026-05-06 18:48 39.74448 -4.02776 14983 ft 318 kts 45°
2026-05-06 18:48 39.75996 -4.00730 14655 ft 315 kts 45°
2026-05-06 18:48 39.77517 -3.98717 14331 ft 312 kts 45°
2026-05-06 18:49 39.79028 -3.96717 14007 ft 310 kts 45°
2026-05-06 18:49 39.80545 -3.94707 13678 ft 309 kts 46°
2026-05-06 18:49 39.82044 -3.92719 13357 ft 308 kts 45°
2026-05-06 18:49 39.83530 -3.90748 13035 ft 307 kts 45°
2026-05-06 18:50 39.85025 -3.88763 12711 ft 306 kts 45°
2026-05-06 18:50 39.86510 -3.86791 12393 ft 304 kts 46°
2026-05-06 18:50 39.87974 -3.84846 12097 ft 301 kts 46°
2026-05-06 18:50 39.89434 -3.82904 11799 ft 300 kts 46°
2026-05-06 18:51 39.90890 -3.80966 11497 ft 299 kts 46°
2026-05-06 18:51 39.92329 -3.79050 11199 ft 298 kts 46°
2026-05-06 18:51 39.93769 -3.77131 10903 ft 296 kts 46°
2026-05-06 18:51 39.95204 -3.75217 10605 ft 294 kts 46°
2026-05-06 18:52 39.96639 -3.73302 10304 ft 292 kts 46°
2026-05-06 18:52 39.98038 -3.71434 10012 ft 291 kts 46°
2026-05-06 18:52 39.99458 -3.69538 9713 ft 290 kts 46°
2026-05-06 18:52 40.00864 -3.67657 9414 ft 289 kts 46°
2026-05-06 18:53 40.02255 -3.65798 9120 ft 286 kts 46°
2026-05-06 18:53 40.03626 -3.63962 8788 ft 281 kts 46°
2026-05-06 18:53 40.04953 -3.62187 8510 ft 269 kts 46°
2026-05-06 18:53 40.06247 -3.60454 8270 ft 261 kts 46°
2026-05-06 18:54 40.07493 -3.58782 7991 ft 258 kts 46°
2026-05-06 18:54 40.08728 -3.57123 7722 ft 255 kts 46°
2026-05-06 18:54 40.09961 -3.55466 7450 ft 252 kts 46°
2026-05-06 18:54 40.11187 -3.53819 7179 ft 249 kts 46°
2026-05-06 18:55 40.12386 -3.52207 6911 ft 246 kts 46°
2026-05-06 18:55 40.13561 -3.50628 6648 ft 244 kts 46°
2026-05-06 18:55 40.14778 -3.48989 6374 ft 259 kts 46°
2026-05-06 18:55 40.16036 -3.47296 6112 ft 256 kts 46°
2026-05-06 18:56 40.17247 -3.45691 5919 ft 242 kts 44°
2026-05-06 18:56 40.18462 -3.44222 5735 ft 236 kts 42°
2026-05-06 18:56 40.19696 -3.42795 5382 ft 239 kts 41°
2026-05-06 18:56 40.20994 -3.41370 5031 ft 245 kts 36°
2026-05-06 18:57 40.22452 -3.40164 4647 ft 249 kts 29°
2026-05-06 18:57 40.23972 -3.39098 4283 ft 249 kts 26°
2026-05-06 18:57 40.25611 -3.38371 4013 ft 246 kts
2026-05-06 18:57 40.27254 -3.38406 4009 ft 231 kts 352°
2026-05-06 18:58 40.28796 -3.38761 4008 ft 221 kts 348°
2026-05-06 18:58 40.30267 -3.39385 4017 ft 221 kts 333°
2026-05-06 18:58 40.31559 -3.40481 4009 ft 222 kts 323°
2026-05-06 18:58 40.32760 -3.41730 4014 ft 222 kts 322°
2026-05-06 18:59 40.33957 -3.42969 4024 ft 212 kts 323°
2026-05-06 18:59 40.35093 -3.44107 4004 ft 195 kts 323°
2026-05-06 18:59 40.36133 -3.45144 4007 ft 181 kts 323°
2026-05-06 18:59 40.37114 -3.46132 4025 ft 173 kts 323°
2026-05-06 19:00 40.38042 -3.47068 4029 ft 169 kts 323°
2026-05-06 19:00 40.39002 -3.48034 3731 ft 172 kts 323°
2026-05-06 19:00 40.39923 -3.48962 3481 ft 164 kts 324°
2026-05-06 19:00 40.40841 -3.49886 3284 ft 166 kts 323°
2026-05-06 19:01 40.41753 -3.50805 3060 ft 164 kts 323°
2026-05-06 19:01 40.42653 -3.51715 2848 ft 165 kts 323°
2026-05-06 19:01 40.43554 -3.52621 2632 ft 164 kts 323°
2026-05-06 19:01 40.44465 -3.53539 2419 ft 163 kts 322°
2026-05-06 19:02 40.45364 -3.54451 2205 ft 163 kts 322°
2026-05-06 19:02 40.46248 -3.55330 2032 ft 160 kts 322°
2026-05-06 19:02 40.47086 -3.56175 1964 ft 130 kts 322°
2026-05-06 19:02 40.47614 -3.56709 1977 ft 55 kts 322°
2026-05-06 19:03 40.47754 -3.56927 1982 ft 29 kts 297°
2026-05-06 19:03 40.47788 -3.57098 1986 ft 16 kts 225°
2026-05-06 19:03 40.47694 -3.57063 1985 ft 15 kts 142°
2026-05-06 19:03 40.47607 -3.56977 1983 ft 16 kts 142°
2026-05-06 19:04 40.47503 -3.56875 1980 ft 20 kts 142°
2026-05-06 19:04 40.47389 -3.56758 1978 ft 20 kts 141°
2026-05-06 19:04 40.47271 -3.56637 1974 ft 22 kts 142°
2026-05-06 19:04 40.47139 -3.56509 1971 ft 23 kts 147°
2026-05-06 19:05 40.46989 -3.56454 1971 ft 21 kts 176°
2026-05-06 19:05 40.46845 -3.56462 1974 ft 20 kts 184°
2026-05-06 19:05 40.46704 -3.56476 1974 ft 20 kts 185°
2026-05-06 19:05 40.46566 -3.56488 1974 ft 19 kts 183°
2026-05-06 19:06 40.46431 -3.56498 1974 ft 19 kts 183°
2026-05-06 19:06 40.46319 -3.56520 1975 ft 14 kts 218°
2026-05-06 19:06 40.46295 -3.56632 1977 ft 11 kts 274°
2026-05-06 19:06 40.46343 -3.56692 1979 ft 9 kts 353°
2026-05-06 19:07 40.46411 -3.56695 1979 ft 9 kts
2026-05-06 19:07 40.46449 -3.56711 1979 ft 5 kts 285°
2026-05-06 19:07 40.46456 -3.56749 1980 ft 2 kts 276°
2026-05-06 19:07 40.46458 -3.56773 1981 ft 2 kts 274°
2026-05-06 19:08 40.46459 -3.56793 1981 ft 1 kts 274°
2026-05-06 19:08 40.46460 -3.56806 1981 ft 1 kts 275°
2026-05-06 19:08 40.46460 -3.56810 1981 ft 1 kts 274°
2026-05-06 19:08 40.46460 -3.56817 1982 ft 0 kts 275°